Regional Weather Roundup
Issued by NWS

Home | Current Version | Previous Version | Graphics & Text | Print | Product List | Glossary Off
Versions: 1 2 3 4 5 6 7 8 9 10 11 12 13 14 15 16 17 18 19 20 21 22 23 24 25 26 27 28 29 30 31 32 33 34 35 36 37 38 39 40 41 42 43 44 45 46 47 48 49 50

000
ASUS43 KMKX 222200
RWRWI

WISCONSIN REGIONAL WEATHER ROUNDUP
NATIONAL WEATHER SERVICE MILWAUKEE/SULLIVAN WI
400 PM CST WED NOV 22 2017

NOTE: "FAIR" INDICATES FEW OR NO CLOUDS BELOW 12,000 FEET WITH NO
SIGNIFICANT WEATHER AND/OR OBSTRUCTIONS TO VISIBILITY.

WIZ001-002-006>008-014>016-023>028-222300-
NORTHWEST WISCONSIN

CITY           SKY/WX    TMP DP  RH WIND       PRES   REMARKS
SUPERIOR ARPT  CLOUDY    24  13  61 SW12      30.11F WCI  13
ASHLAND        MOCLDY    25  12  58 S13       30.10F WCI  14
HAYWARD        CLOUDY    23  13  65 S14       30.11F WCI  11
SIREN          CLOUDY    23  17  79 S8        30.12F WCI  14
CUMBERLAND     LGT SNOW  23  18  80 S9        30.12F WCI  13
RICE LAKE      LGT SNOW  23  19  83 S8        30.16S WCI  14
CHETEK         LGT SNOW  23  17  77 S7        30.15F WCI  14
LADYSMITH      LGT SNOW  24  14  65 SW10      30.15F WCI  13
EAU CLAIRE     NOT AVBL
MENOMONIE      LGT SNOW  26  17  67 S5        30.16F WCI  20
NEW RICHMOND   CLOUDY    24  19  81 SE6       30.13F WCI  17
OSCEOLA        CLOUDY    24  19  82 SE6       30.16F WCI  17
$$

WIZ003>005-009-010-017-018-222300-
NORTH CENTRAL WISCONSIN

CITY           SKY/WX    TMP DP  RH WIND       PRES   REMARKS
MANITOWISH WTR CLOUDY    23  12  61 SW12      30.08S WCI  12
ARBOR VITAE    CLOUDY    26  13  59 S10       30.08F WCI  15
WOODRUFF       CLOUDY    26  13  59 S10       30.08F WCI  15
RHINELANDER    CLOUDY    25  12  58 SW9       30.10F WCI  15
EAGLE RIVER    CLOUDY    24  10  55 SW5       30.08F WCI  18
LAND O LAKES   CLOUDY    25  12  59 SW8       30.09F WCI  16
PHILLIPS       CLOUDY    22  12  64 SW8       30.11S WCI  13
TOMAHAWK       CLOUDY    25  12  58 SW3       30.13S
MEDFORD        CLOUDY    24  13  63 SW7       30.13F WCI  15
MERRILL        CLOUDY    25  12  58 SW8       30.14F WCI  17
$$

WIZ029-030-035-036-043>047-222300-
CENTRAL WISCONSIN

CITY           SKY/WX    TMP DP  RH WIND       PRES   REMARKS
WAUSAU         CLOUDY    25  13  60 SW10      30.14F WCI  15
MOSINEE        CLOUDY    25  14  63 S8        30.16F WCI  16
MARSHFIELD     CLOUDY    25  10  53 SW9       30.14F WCI  15
STEVENS POINT  CLOUDY    25  11  56 SW7       30.18S WCI  17
WAUPACA        CLOUDY    31  14  48 SW3       30.20F
WAUTOMA        CLOUDY    29  14  53 SW7       30.20F WCI  22
WISC RAPIDS    CLOUDY    28  13  53 SW5       30.19F WCI  23
CAMP DOUGLAS   CLOUDY    29  13  50 S3        30.18F
$$

WIZ011>013-019>022-031-037>040-048>050-222300-
NORTHEAST WISCONSIN

CITY           SKY/WX    TMP DP  RH WIND       PRES   REMARKS
ANTIGO         CLOUDY    25  12  59 SW10      30.14S WCI  14
SHAWANO        CLOUDY    30  13  49 SW6       30.18F WCI  24
OCONTO         CLOUDY    28  13  53 SW7       30.19F WCI  21
STURGEON BAY   PTCLDY    27  15  61 SW5       30.20S WCI  22
GREEN BAY      CLOUDY    29  16  58 SW9       30.21S WCI  20
MANITOWOC      CLOUDY    29  16  58 W7        30.22S WCI  22
APPLETON       CLOUDY    28  10  47 SW9       30.18F WCI  20
CLINTONVILLE   PTCLDY    28  10  47 SW7       30.20S WCI  21
OSHKOSH        PTCLDY    29  16  58 SW6       30.20S WCI  23
$$

WIZ032>034-041-042-053>061-222300-
SOUTHWEST WISCONSIN

CITY           SKY/WX    TMP DP  RH WIND       PRES   REMARKS
LA CROSSE      CLOUDY    31  14  49 S6        30.19F WCI  25
SPARTA         CLOUDY    29  14  52 SW3       30.20F
VIROQUA        CLOUDY    28  17  63 SW8       30.17F WCI  20
BOSCOBEL       CLOUDY    32  14  47 S5        30.21F WCI  27
PRAIRIE DU CHI CLOUDY    32  13  44 S6        30.22F WCI  26
PLATTEVILLE    PTCLDY    32  16  52 SW9       30.22S WCI  24
$$

WIZ056-057-062-063-064-067-068-222300-
SOUTH CENTRAL WISCONSIN

CITY           SKY/WX    TMP DP  RH WIND       PRES   REMARKS
REEDSBURG      CLOUDY    29  14  53 SW7       30.20S WCI  22
BARABOO/DELLS  CLOUDY    29  14  52 SW7       30.20S WCI  22
LONE ROCK      NOT AVBL
MINERAL POINT  CLOUDY    32  18  55 SW5       30.21R WCI  27
MADISON        CLOUDY    31  14  49 SW6       30.21S WCI  25
MIDDLETON      CLOUDY    32  15  50 SW7       30.22S WCI  26
WATERTOWN      PTCLDY    30  16  55 SW9       30.22S WCI  22
MONROE         CLOUDY    32  16  51 SW12      30.21F WCI  23
JANESVILLE     MOCLDY    32  16  51 SW9       30.23S WCI  24
$$

WIZ051-052-058>065-066-070>072-222300-
SOUTHEAST WISCONSIN

CITY           SKY/WX    TMP DP  RH WIND       PRES   REMARKS
MILWAUKEE      MOCLDY    33  14  45 SW8       30.23F WCI  26
WAUKESHA       CLEAR     28  12  50 SW8       30.23S WCI  20
MILWAUKEE/TIMM CLEAR     30  10  43 SW9       30.23F WCI  22
RACINE         MOCLDY    32  14  47 SW6       30.26S WCI  26
BURLINGTON     PTCLDY    33  21  60 W5        30.24S WCI  28
KENOSHA        CLOUDY    31  15  52 W6        30.24S WCI  25
FOND DU LAC    CLOUDY    30  14  51 SW6       30.21S WCI  24
SHEBOYGAN      CLOUDY    30  15  53 SW8       30.22S WCI  22
WEST BEND      CLOUDY    30  14  51 SW7       30.21F WCI  23
JUNEAU         CLOUDY    29  15  56 SW12      30.22S WCI  19
$$

LSZ147-162-222300-
LAKE SUPERIOR

STATION/POSITION TIME  TEMP    WIND        PRES    WAVE
                       AIR SEA DIR/SP/G            HT/PER
                 (UTC) (F)     (DEG/KT/KT) (MB)    (FT/S)
DEVILS ISLAND    2100   25     200/  9/ 11 1020.3F
SAXON HARBOR     2140   27     210/  7/ 12 1019.3F
$$

LMZ867-665-643>646-222300-
LAKE MICHIGAN

STATION/POSITION TIME  TEMP    WIND        PRES    WAVE
                       AIR SEA DIR/SP/G            HT/PER
                 (UTC) (F)     (DEG/KT/KT) (MB)    (FT/S)
N MID LAKE BUOY  2050   31 47  220/ 12/ 19 1023.9F
NORTHPORT PIER   2140   28     180/  5/ 10 1022.4S
KEWAUNEE LAKESHO 2130   29     230/  4/  7 1022.3S
SHEBOYGAN LAKESH 2100   30     190/  8/  9 1024.0F
PORT WASHINGTON  2130   32     230/  6/  9 1024.4S
MILWAUKEE LAKESH 2130   33     230/  7/  9   N/A
S MID LAKE BUOY  2050   31 47  280/  8/ 10 1026.0R   2/ 6
KENOSHA   LAKESH 2100   33     220/  7/  9 1024.4
$$

TC  - TEMPERATURE IN CELSIUS
VSB - VISIBILITY IN STATUTE MILES
WCI - WIND CHILL INDEX
HX  - HEAT INDEX





USA.gov is the U.S. government's official web portal to all federal, state and local government web resources and services.